Погода в Тупицыно

Россия / Республика Коми     61°59′51″N   50°24′55″E
темп.,
°C
ветер,
м/с
пор.,
м/с
влажн.,
%
обл.,
%
осадки,
мм/ч
давл.,
гПа
погр.,
м
12 мая, ср
ср1200:00+10юз3108946 0.0 1028201
03:00+9юз31192100 0.0 1028230
06:00+13зюз31173100 0.0 1028354
09:00+18зюз4854100 0.0 1027710
12:00+22зюз5744100 0.0 10271287
15:00+23з574199 0.0 10261458
18:00+20зюз265322 0.0 1026230
21:00+15юз24735 0.0 102666
13 мая, чт
чт1300:00+13зюз23795 0.0 102743
03:00+12зюз22835 0.0 102729
06:00+16юз236633 0.0 1027181
09:00+22ююз34455 0.0 1026860
12:00+25юз35310 0.0 10251670
15:00+26юз45310 0.0 10232087
18:00+23юз25406 0.0 1022245
21:00+18ююз225829 0.0 102215
14 мая, пт
пт1400:00+16ю227014 0.2 102117
03:00+15ююз22735 0.2 102042
06:00+18ююз276489 0.0 1019280
09:00+21ююз4752100 0.0 1019761
12:00+23ююз384522 0.0 10171943
15:00+24юз584644 0.0 10162016
18:00+21зюз495513 0.0 10161440
21:00+18юз2567100 0.0 1016143
15 мая, сб
сб1500:00+15зюз287526 0.0 1016228
03:00+13юз258446 0.0 1017101
06:00+16юз36665 0.0 1016374
09:00+20зюз4741100 0.0 10151404
12:00+21зюз5939100 0.0 10151830
15:00+21зюз474458 0.0 10151787
18:00+21юз354936 0.0 1014537
21:00+15в117319 0.0 101412
16 мая, вс
вс1600:00+13юв3884100 0.2 1013175
03:00+14юв41290100 2.0 1011457
06:00+17ююз39843 0.2 1010474
09:00+22юз596050 0.2 10091203
12:00+25юз594425 0.0 10082201
15:00+16ю91589100 10.3 1007844
18:00+18ююз4128165 9.3 1006611
21:00+16юз4138613 9.8 1006429